Location: Capelle
(50.3413°N, 1.9974°E)
Time: 19:29:31
(UTC+00:00)

Resurs 01 Rocket - Pass Details

Date: 14 April 2026
Orbit: 626 x 636 km, 97.7° (Epoch: 12 May)

Event Time Altitude Azimuth Distance (km) Brightness Sun altitude
Rises 20:05:14 0° 216° (SW) 2,913 5.1 -12.5°
Reaches altitude 10° 20:08:34 10° 244° (WSW) 2,010 4.6 -12.9°
Maximum altitude 20:10:40 13° 273° (W) 1,806 4.9 -13.2°
Drops below altitude 10° 20:12:46 10° 302° (WNW) 2,016 5.7 -13.5°
Sets 20:16:08 0° 330° (NNW) 2,928 6.3 -13.9°
